| time (UTC) | temp F | wind direction | speed knots | gust knots | rain 1hr in | rain 24hr in | rain mn in | humidity % | barometer mb |
| 20260509013031 | 80 | 280 | 7.0 | 13.0 | 0.00 | 0.00 | 0.00 | 15 | 1007.8 |
| 20260509012530 | 81 | 360 | 5.2 | 12.2 | 0.00 | 0.00 | 0.00 | 15 | 1007.9 |
| 20260509012030 | 81 | 360 | 7.0 | 11.3 | 0.00 | 0.00 | 0.00 | 15 | 1007.9 |
| 20260509011533 | 81 | 320 | 6.1 | 13.9 | 0.00 | 0.00 | 0.00 | 15 | 1007.8 |
| 20260509011029 | 81 | 325 | 7.0 | 15.6 | 0.00 | 0.00 | 0.00 | 14 | 1007.9 |
| 20260509010528 | 82 | 299 | 6.1 | 15.6 | 0.00 | 0.00 | 0.00 | 14 | 1008.0 |
| 20260509010029 | 82 | 329 | 3.5 | 12.2 | 0.00 | 0.00 | 0.00 | 13 | 1007.9 |
| 20260509005527 | 83 | 348 | 7.0 | 12.2 | 0.00 | 0.00 | 0.00 | 13 | 1008.0 |
| 20260509005027 | 83 | 344 | 4.3 | 10.4 | 0.00 | 0.00 | 0.00 | 13 | 1007.9 |
| 20260509004531 | 83 | 12 | 4.3 | 13.0 | 0.00 | 0.00 | 0.00 | 12 | 1008.0 |
| 20260509004027 | 83 | 5 | 7.0 | 13.0 | 0.00 | 0.00 | 0.00 | 12 | 1007.9 |
| 20260509003526 | 84 | 360 | 6.1 | 10.4 | 0.00 | 0.00 | 0.00 | 12 | 1008.1 |
| 20260509003042 | 84 | 11 | 4.3 | 10.4 | 0.00 | 0.00 | 0.00 | 12 | 1008.1 |
| 20260509002526 | 83 | 26 | 4.3 | 11.3 | 0.00 | 0.00 | 0.00 | 12 | 1008.1 |
| 20260509002026 | 83 | 342 | 4.3 | 13.9 | 0.00 | 0.00 | 0.00 | 12 | 1008.1 |
| 20260509001526 | 82 | 5 | 5.2 | 16.5 | 0.00 | 0.00 | 0.00 | 12 | 1008.2 |
| 20260509001026 | 83 | 304 | 6.1 | 10.4 | 0.00 | 0.00 | 0.00 | 11 | 1008.1 |
| 20260509000529 | 82 | 346 | 6.1 | 14.8 | 0.00 | 0.00 | 0.00 | 12 | 1008.2 |
| 20260509000024 | 84 | 288 | 8.7 | 14.8 | 0.00 | 0.00 | 0.00 | 11 | 1008.3 |
| 20260508235524 | 84 | 314 | 4.3 | 11.3 | 0.00 | 0.00 | 0.00 | 11 | 1008.3 |
| 20260508235024 | 83 | 23 | 7.8 | 14.8 | 0.00 | 0.00 | 0.00 | 11 | 1008.3 |
| 20260508234527 | 83 | 355 | 8.7 | 13.9 | 0.00 | 0.00 | 0.00 | 11 | 1008.2 |
| 20260508234022 | 83 | 263 | 5.2 | 15.6 | 0.00 | 0.00 | 0.00 | 11 | 1008.3 |
| 20260508233522 | 83 | 259 | 7.0 | 15.6 | 0.00 | 0.00 | 0.00 | 11 | 1008.4 |
| 20260508233023 | 83 | 257 | 3.5 | 13.9 | 0.00 | 0.00 | 0.00 | 10 | 1008.4 |
| 20260508232521 | 83 | 271 | 8.7 | 12.2 | 0.00 | 0.00 | 0.00 | 10 | 1008.5 |
| 20260508232021 | 84 | 290 | 4.3 | 13.9 | 0.00 | 0.00 | 0.00 | 9 | 1008.4 |
| 20260508231521 | 83 | 273 | 7.0 | 14.8 | 0.00 | 0.00 | 0.00 | 9 | 1008.6 |
| 20260508231022 | 82 | 278 | 7.8 | 17.4 | 0.00 | 0.00 | 0.00 | 8 | 1008.5 |
| 20260508230520 | 84 | 287 | 8.7 | 17.4 | 0.00 | 0.00 | 0.00 | 8 | 1008.5 |
| 20260508230020 | 86 | 294 | 1.7 | 11.3 | 0.00 | 0.00 | 0.00 | 9 | 1008.6 |
| 20260508225524 | 86 | 47 | 5.2 | 11.3 | 0.00 | 0.00 | 0.00 | 10 | 1008.8 |
| 20260508225017 | 86 | 355 | 1.7 | 9.6 | 0.00 | 0.00 | 0.00 | 9 | 1008.8 |
| 20260508224516 | 85 | 338 | 0.9 | 9.6 | 0.00 | 0.00 | 0.00 | 10 | 1008.9 |
| 20260508224016 | 84 | 344 | 4.3 | 11.3 | 0.00 | 0.00 | 0.00 | 10 | 1009.1 |
| 20260508223519 | 84 | 355 | 7.0 | 13.0 | 0.00 | 0.00 | 0.00 | 9 | 1009.2 |
| 20260508223018 | 84 | 307 | 7.0 | 13.0 | 0.00 | 0.00 | 0.00 | 10 | 1009.1 |
| 20260508222514 | 85 | 317 | 4.3 | 13.9 | 0.00 | 0.00 | 0.00 | 10 | 1009.1 |
| 20260508222015 | 85 | 313 | 8.7 | 13.9 | 0.00 | 0.00 | 0.00 | 10 | 1009.1 |
| 20260508221520 | 85 | 346 | 4.3 | 11.3 | 0.00 | 0.00 | 0.00 | 11 | 1009.2 |
| 20260508221013 | 85 | 330 | 2.6 | 11.3 | 0.00 | 0.00 | 0.00 | 11 | 1009.2 |
| 20260508220516 | 85 | 355 | 5.2 | 12.2 | 0.00 | 0.00 | 0.00 | 11 | 1009.4 |
| 20260508220016 | 84 | 290 | 4.3 | 13.0 | 0.00 | 0.00 | 0.00 | 11 | 1009.4 |
| 20260508215512 | 84 | 342 | 1.7 | 13.0 | 0.00 | 0.00 | 0.00 | 12 | 1009.4 |
| 20260508215011 | 85 | 331 | 6.1 | 12.2 | 0.00 | 0.00 | 0.00 | 14 | 1009.5 |
| 20260508214511 | 85 | 325 | 5.2 | 12.2 | 0.00 | 0.00 | 0.00 | 11 | 1009.6 |
| 20260508214010 | 84 | 283 | 7.8 | 13.0 | 0.00 | 0.00 | 0.00 | 11 | 1009.6 |
| 20260508213510 | 85 | 5 | 7.0 | 13.0 | 0.00 | 0.00 | 0.00 | 11 | 1009.6 |
| 20260508213010 | 86 | 64 | 4.3 | 10.4 | 0.00 | 0.00 | 0.00 | 11 | 1009.7 |
| 20260508212514 | 86 | 319 | 5.2 | 11.3 | 0.00 | 0.00 | 0.00 | 10 | 1009.7 |
| 20260508212010 | 87 | 348 | 5.2 | 10.4 | 0.00 | 0.00 | 0.00 | 10 | 1009.6 |
| 20260508211507 | 85 | 11 | 2.6 | 9.6 | 0.00 | 0.00 | 0.00 | 10 | 1009.7 |
| 20260508211007 | 83 | 327 | 2.6 | 9.6 | 0.00 | 0.00 | 0.00 | 11 | 1009.7 |
| 20260508210506 | 82 | 254 | 2.6 | 12.2 | 0.00 | 0.00 | 0.00 | 10 | 1009.8 |
| 20260508210006 | 82 | 247 | 6.1 | 13.9 | 0.00 | 0.00 | 0.00 | 8 | 1009.9 |
| 20260508205505 | 83 | 178 | 4.3 | 13.9 | 0.00 | 0.00 | 0.00 | 8 | 1009.9 |
| 20260508205004 | 84 | 283 | 0.9 | 4.3 | 0.00 | 0.00 | 0.00 | 7 | 1010.0 |
| 20260508204504 | 81 | 5 | 1.7 | 12.2 | 0.00 | 0.00 | 0.00 | 8 | 1010.0 |
| 20260508204002 | 80 | 194 | 3.5 | 12.2 | 0.00 | 0.00 | 0.00 | 7 | 1010.1 |
| 20260508203503 | 80 | 254 | 2.6 | 7.8 | 0.00 | 0.00 | 0.00 | 8 | 1010.2 |
| 20260508203002 | 80 | 183 | 4.3 | 10.4 | 0.00 | 0.00 | 0.00 | 8 | 1010.3 |
| 20260508202502 | 80 | 237 | 1.7 | 10.4 | 0.00 | 0.00 | 0.00 | 9 | 1010.3 |
| 20260508202100 | 80 | 246 | 3.5 | 10.4 | 0.00 | 0.00 | 0.00 | 8 | 1010.3 |
| 20260508202001 | 81 | 214 | 5.2 | 10.4 | 0.00 | 0.00 | 0.00 | 8 | 1010.3 |
| 20260508201501 | 81 | 279 | 5.2 | 14.8 | 0.00 | 0.00 | 0.00 | 9 | 1010.4 |
| 20260508201100 | 82 | 227 | 7.0 | 14.8 | 0.00 | 0.00 | 0.00 | 8 | 1010.4 |
| 20260508200600 | 82 | 336 | 2.6 | 11.3 | 0.00 | 0.00 | 0.00 | 8 | 1010.3 |
| 20260508200108 | 82 | 223 | 4.3 | 11.3 | 0.00 | 0.00 | 0.00 | 9 | 1010.5 |
| 20260508195600 | 81 | 335 | 3.5 | 6.1 | 0.00 | 0.00 | 0.00 | 12 | 1010.4 |
| 20260508195059 | 79 | 25 | 0.9 | 10.4 | 0.00 | 0.00 | 0.00 | 16 | 1010.5 |
| 20260508194600 | 80 | 355 | 0.9 | 7.0 | 0.00 | 0.00 | 0.00 | 16 | 1010.5 |
| 20260508194102 | 80 | 5 | 2.6 | 5.2 | 0.00 | 0.00 | 0.00 | 15 | 1010.6 |
| 20260508193557 | 79 | 328 | 1.7 | 8.7 | 0.00 | 0.00 | 0.00 | 16 | 1010.6 |
| 20260508193109 | 80 | 331 | 2.6 | 8.7 | 0.00 | 0.00 | 0.00 | 11 | 1010.7 |
| 20260508192559 | 79 | 350 | 2.6 | 10.4 | 0.00 | 0.00 | 0.00 | 17 | 1010.8 |
| 20260508192056 | 79 | 294 | 4.3 | 10.4 | 0.00 | 0.00 | 0.00 | 16 | 1010.8 |
| 20260508191557 | 80 | 281 | 1.7 | 7.8 | 0.00 | 0.00 | 0.00 | 15 | 1010.8 |
| 20260508191056 | 81 | 360 | 0.9 | 7.8 | 0.00 | 0.00 | 0.00 | 16 | 1010.9 |
| 20260508190556 | 81 | 333 | 2.6 | 9.6 | 0.00 | 0.00 | 0.00 | 16 | 1011.0 |
| 20260508190058 | 80 | 348 | 2.6 | 9.6 | 0.00 | 0.00 | 0.00 | 16 | 1011.1 |
| 20260508185555 | 78 | 355 | 3.5 | 7.8 | 0.00 | 0.00 | 0.00 | 18 | 1011.2 |
| 20260508185055 | 79 | 202 | 3.5 | 8.7 | 0.00 | 0.00 | 0.00 | 17 | 1011.3 |
| 20260508184603 | 81 | 329 | 4.3 | 8.7 | 0.00 | 0.00 | 0.00 | 16 | 1011.3 |
| 20260508184053 | 80 | 19 | 2.6 | 8.7 | 0.00 | 0.00 | 0.00 | 17 | 1011.5 |
| 20260508183552 | 78 | 350 | 3.5 | 8.7 | 0.00 | 0.00 | 0.00 | 18 | 1011.6 |
| 20260508183103 | 78 | 284 | 3.5 | 7.8 | 0.00 | 0.00 | 0.00 | 17 | 1011.5 |
| 20260508182551 | 78 | 346 | 2.6 | 8.7 | 0.00 | 0.00 | 0.00 | 17 | 1011.5 |
| 20260508182050 | 77 | 265 | 4.3 | 9.6 | 0.00 | 0.00 | 0.00 | 16 | 1011.6 |
| 20260508181550 | 77 | 284 | 3.5 | 9.6 | 0.00 | 0.00 | 0.00 | 17 | 1011.7 |
| 20260508181050 | 76 | 329 | 1.7 | 8.7 | 0.00 | 0.00 | 0.00 | 19 | 1011.7 |
| 20260508180550 | 77 | 235 | 3.5 | 7.8 | 0.00 | 0.00 | 0.00 | 17 | 1011.7 |
| 20260508180050 | 77 | 5 | 2.6 | 8.7 | 0.00 | 0.00 | 0.00 | 18 | 1011.8 |
| 20260508175549 | 77 | 315 | 2.6 | 8.7 | 0.00 | 0.00 | 0.00 | 17 | 1011.9 |
| 20260508175048 | 77 | 328 | 2.6 | 7.0 | 0.00 | 0.00 | 0.00 | 17 | 1011.9 |
| 20260508174559 | 76 | 88 | 0.9 | 4.3 | 0.00 | 0.00 | 0.00 | 17 | 1011.8 |
| 20260508174045 | 74 | 10 | 0.9 | 7.8 | 0.00 | 0.00 | 0.00 | 19 | 1011.9 |
| 20260508173544 | 73 | 269 | 3.5 | 7.8 | 0.00 | 0.00 | 0.00 | 19 | 1011.9 |
| 20260508173043 | 72 | 237 | 1.7 | 8.7 | 0.00 | 0.00 | 0.00 | 19 | 1011.9 |
| 20260508172545 | 72 | 203 | 1.7 | 8.7 | 0.00 | 0.00 | 0.00 | 19 | 1011.9 |
| 20260508172042 | 73 | 281 | 2.6 | 6.1 | 0.00 | 0.00 | 0.00 | 19 | 1012.0 |
| 20260508171542 | 72 | 267 | 1.7 | 7.8 | 0.00 | 0.00 | 0.00 | 19 | 1012.1 |
| 20260508171045 | 71 | 293 | 2.6 | 10.4 | 0.00 | 0.00 | 0.00 | 19 | 1012.1 |
| 20260508170540 | 71 | 318 | 3.5 | 7.0 | 0.00 | 0.00 | 0.00 | 20 | 1012.1 |
| 20260508170040 | 71 | 269 | 2.6 | 6.1 | 0.00 | 0.00 | 0.00 | 20 | 1012.2 |
| 20260508165539 | 70 | 199 | 1.7 | 7.8 | 0.00 | 0.00 | 0.00 | 21 | 1012.2 |
| 20260508165040 | 70 | 247 | 3.5 | 8.7 | 0.00 | 0.00 | 0.00 | 21 | 1012.2 |
| 20260508164545 | 70 | 285 | 2.6 | 7.8 | 0.00 | 0.00 | 0.00 | 21 | 1012.2 |
| 20260508164038 | 69 | 295 | 4.3 | 7.8 | 0.00 | 0.00 | 0.00 | 21 | 1012.2 |
| 20260508163539 | 69 | 254 | 3.5 | 8.7 | 0.00 | 0.00 | 0.00 | 21 | 1012.2 |
| 20260508163105 | 69 | 5 | 1.7 | 8.7 | 0.00 | 0.00 | 0.00 | 25 | 1012.3 |
| 20260508162538 | 69 | 273 | 4.3 | 7.8 | 0.00 | 0.00 | 0.00 | 24 | 1012.4 |
| 20260508162039 | 70 | 327 | 3.5 | 7.0 | 0.00 | 0.00 | 0.00 | 23 | 1012.3 |
| 20260508161539 | 70 | 311 | 2.6 | 7.0 | 0.00 | 0.00 | 0.00 | 23 | 1012.4 |
| 20260508161039 | 69 | 360 | 3.5 | 7.0 | 0.00 | 0.00 | 0.00 | 23 | 1012.4 |
| 20260508160536 | 69 | 279 | 2.6 | 7.0 | 0.00 | 0.00 | 0.00 | 24 | 1012.4 |
| 20260508160037 | 69 | 279 | 2.6 | 7.0 | 0.00 | 0.00 | 0.00 | 24 | 1012.5 |
| 20260508155534 | 68 | 327 | 3.5 | 7.8 | 0.00 | 0.00 | 0.00 | 24 | 1012.5 |
| 20260508155035 | 67 | 295 | 3.5 | 8.7 | 0.00 | 0.00 | 0.00 | 27 | 1012.7 |
| 20260508154532 | 66 | 348 | 2.6 | 8.7 | 0.00 | 0.00 | 0.00 | 25 | 1012.6 |
| 20260508154031 | 66 | 242 | 3.5 | 7.8 | 0.00 | 0.00 | 0.00 | 22 | 1012.7 |
| 20260508153532 | 66 | 270 | 4.3 | 7.0 | 0.00 | 0.00 | 0.00 | 23 | 1012.6 |
| 20260508153033 | 65 | 252 | 3.5 | 7.8 | 0.00 | 0.00 | 0.00 | 22 | 1012.6 |
| 20260508152530 | 65 | 236 | 4.3 | 7.8 | 0.00 | 0.00 | 0.00 | 21 | 1012.6 |
| 20260508152031 | 64 | 219 | 3.5 | 8.7 | 0.00 | 0.00 | 0.00 | 22 | 1012.6 |
| 20260508151536 | 64 | 256 | 4.3 | 9.6 | 0.00 | 0.00 | 0.00 | 22 | 1012.5 |
| 20260508151034 | 63 | 236 | 5.2 | 9.6 | 0.00 | 0.00 | 0.00 | 22 | 1012.4 |
| 20260508150530 | 63 | 244 | 5.2 | 11.3 | 0.00 | 0.00 | 0.00 | 23 | 1012.5 |
| 20260508150032 | 62 | 226 | 6.1 | 12.2 | 0.00 | 0.00 | 0.00 | 23 | 1012.5 |
| 20260508145530 | 62 | 242 | 7.0 | 12.2 | 0.00 | 0.00 | 0.00 | 24 | 1012.5 |
| 20260508145029 | 62 | 265 | 7.8 | 12.2 | 0.00 | 0.00 | 0.00 | 24 | 1012.6 |
| 20260508144535 | 61 | 236 | 7.0 | 13.0 | 0.00 | 0.00 | 0.00 | 24 | 1012.6 |
| 20260508144028 | 61 | 240 | 7.8 | 13.0 | 0.00 | 0.00 | 0.00 | 25 | 1012.6 |
| 20260508143528 | 61 | 261 | 7.0 | 12.2 | 0.00 | 0.00 | 0.00 | 25 | 1012.4 |
| 20260508143027 | 60 | 256 | 6.1 | 12.2 | 0.00 | 0.00 | 0.00 | 25 | 1012.5 |
| 20260508142527 | 60 | 231 | 4.3 | 9.6 | 0.00 | 0.00 | 0.00 | 26 | 1012.4 |
| 20260508142026 | 60 | 249 | 3.5 | 8.7 | 0.00 | 0.00 | 0.00 | 26 | 1012.3 |
| 20260508141526 | 60 | 188 | 4.3 | 8.7 | 0.00 | 0.00 | 0.00 | 26 | 1012.4 |
| 20260508141026 | 59 | 258 | 3.5 | 7.0 | 0.00 | 0.00 | 0.00 | 26 | 1012.3 |
| 20260508140525 | 59 | 206 | 3.5 | 8.7 | 0.00 | 0.00 | 0.00 | 26 | 1012.3 |
| 20260508140030 | 59 | 232 | 4.3 | 8.7 | 0.00 | 0.00 | 0.00 | 26 | 1012.3 |
| 20260508135527 | 59 | 238 | 3.5 | 7.8 | 0.00 | 0.00 | 0.00 | 26 | 1012.3 |
| 20260508135024 | 59 | 232 | 3.5 | 9.6 | 0.00 | 0.00 | 0.00 | 26 | 1012.2 |
| 20260508134525 | 59 | 271 | 5.2 | 9.6 | 0.00 | 0.00 | 0.00 | 26 | 1012.2 |
| 20260508134022 | 60 | 234 | 4.3 | 8.7 | 0.00 | 0.00 | 0.00 | 27 | 1012.1 |
| 20260508133523 | 59 | 240 | 3.5 | 8.7 | 0.00 | 0.00 | 0.00 | 28 | 1012.0 |
| 20260508133021 | 59 | 261 | 2.6 | 7.0 | 0.00 | 0.00 | 0.00 | 29 | 1012.0 |
| 20260508132520 | 59 | 263 | 4.3 | 7.8 | 0.00 | 0.00 | 0.00 | 29 | 1012.0 |
| 20260508132020 | 59 | 221 | 4.3 | 7.8 | 0.00 | 0.00 | 0.00 | 30 | 1011.9 |
| 20260508131519 | 59 | 212 | 4.3 | 7.0 | 0.00 | 0.00 | 0.00 | 30 | 1011.8 |
| 20260508131019 | 59 | 211 | 2.6 | 8.7 | 0.00 | 0.00 | 0.00 | 28 | 1011.7 |
| 20260508130516 | 59 | 188 | 4.3 | 8.7 | 0.00 | 0.00 | 0.00 | 26 | 1011.7 |
| 20260508130016 | 59 | 230 | 4.3 | 12.2 | 0.00 | 0.00 | 0.00 | 25 | 1011.6 |
| 20260508125516 | 59 | 244 | 4.3 | 13.9 | 0.00 | 0.00 | 0.00 | 24 | 1011.5 |
| 20260508125016 | 59 | 223 | 7.0 | 13.9 | 0.00 | 0.00 | 0.00 | 24 | 1011.5 |
| 20260508124515 | 59 | 227 | 9.6 | 16.5 | 0.00 | 0.00 | 0.00 | 24 | 1011.6 |
| 20260508124014 | 59 | 259 | 8.7 | 15.6 | 0.00 | 0.00 | 0.00 | 25 | 1011.5 |
| 20260508123513 | 59 | 232 | 9.6 | 15.6 | 0.00 | 0.00 | 0.00 | 24 | 1011.4 |
| 20260508123012 | 59 | 241 | 7.8 | 12.2 | 0.00 | 0.00 | 0.00 | 25 | 1011.3 |
| 20260508122511 | 59 | 246 | 7.0 | 11.3 | 0.00 | 0.00 | 0.00 | 25 | 1011.2 |
| 20260508122009 | 59 | 261 | 7.8 | 12.2 | 0.00 | 0.00 | 0.00 | 24 | 1011.1 |
| 20260508121511 | 60 | 260 | 7.0 | 13.9 | 0.00 | 0.00 | 0.00 | 23 | 1011.0 |
| 20260508121008 | 59 | 267 | 7.8 | 13.9 | 0.00 | 0.00 | 0.00 | 23 | 1011.0 |
| 20260508120509 | 60 | 265 | 5.2 | 11.3 | 0.00 | 0.00 | 0.00 | 23 | 1011.0 |
| 20260508120007 | 60 | 284 | 7.8 | 12.2 | 0.00 | 0.00 | 0.00 | 23 | 1011.0 |
| 20260508115510 | 60 | 270 | 7.8 | 13.0 | 0.00 | 0.00 | 0.00 | 23 | 1011.0 |
| 20260508115004 | 61 | 262 | 8.7 | 12.2 | 0.00 | 0.00 | 0.00 | 23 | 1011.0 |
| 20260508114504 | 61 | 264 | 6.1 | 10.4 | 0.00 | 0.00 | 0.00 | 23 | 1011.0 |
| 20260508114003 | 61 | 243 | 4.3 | 12.2 | 0.00 | 0.00 | 0.00 | 23 | 1011.0 |
| 20260508113503 | 61 | 233 | 7.8 | 12.2 | 0.00 | 0.00 | 0.00 | 22 | 1010.9 |
| 20260508113002 | 61 | 261 | 6.1 | 11.3 | 0.00 | 0.00 | 0.00 | 23 | 1011.0 |
| 20260508112501 | 61 | 240 | 5.2 | 11.3 | 0.00 | 0.00 | 0.00 | 23 | 1011.0 |
| 20260508112100 | 61 | 226 | 4.3 | 8.7 | 0.00 | 0.00 | 0.00 | 23 | 1011.0 |
| 20260508111600 | 62 | 245 | 4.3 | 13.9 | 0.00 | 0.00 | 0.00 | 23 | 1010.9 |
| 20260508111100 | 62 | 231 | 3.5 | 13.9 | 0.00 | 0.00 | 0.00 | 23 | 1010.9 |
| 20260508110559 | 62 | 244 | 5.2 | 13.9 | 0.00 | 0.00 | 0.00 | 24 | 1010.9 |
| 20260508110130 | 62 | 241 | 7.0 | 13.9 | 0.00 | 0.00 | 0.00 | 24 | 1010.9 |
| 20260508105558 | 62 | 211 | 6.1 | 13.0 | 0.00 | 0.00 | 0.00 | 24 | 1010.8 |
| 20260508105057 | 62 | 245 | 7.8 | 13.0 | 0.00 | 0.00 | 0.00 | 23 | 1010.9 |
| 20260508104603 | 62 | 256 | 7.0 | 13.9 | 0.00 | 0.00 | 0.00 | 24 | 1010.9 |
| 20260508104055 | 62 | 273 | 8.7 | 13.0 | 0.00 | 0.00 | 0.00 | 24 | 1010.8 |
| 20260508103554 | 62 | 270 | 6.1 | 15.6 | 0.00 | 0.00 | 0.00 | 24 | 1010.7 |
| 20260508103054 | 63 | 272 | 9.6 | 16.5 | 0.00 | 0.00 | 0.00 | 23 | 1010.6 |
| 20260508102551 | 63 | 256 | 9.6 | 18.2 | 0.00 | 0.00 | 0.00 | 23 | 1010.5 |
| 20260508102052 | 63 | 271 | 9.6 | 18.2 | 0.00 | 0.00 | 0.00 | 23 | 1010.4 |
| 20260508101554 | 63 | 270 | 8.7 | 21.7 | 0.00 | 0.00 | 0.00 | 22 | 1010.4 |
| 20260508101049 | 63 | 269 | 8.7 | 21.7 | 0.00 | 0.00 | 0.00 | 22 | 1010.3 |
| 20260508100548 | 64 | 277 | 7.8 | 14.8 | 0.00 | 0.00 | 0.00 | 22 | 1010.2 |
| 20260508100047 | 64 | 269 | 8.7 | 16.5 | 0.00 | 0.00 | 0.00 | 22 | 1010.2 |
| 20260508095550 | 64 | 289 | 10.4 | 16.5 | 0.00 | 0.00 | 0.00 | 22 | 1010.1 |
| 20260508095050 | 64 | 293 | 8.7 | 14.8 | 0.00 | 0.00 | 0.00 | 22 | 1010.1 |
| 20260508094553 | 64 | 202 | 8.7 | 15.6 | 0.00 | 0.00 | 0.00 | 22 | 1010.1 |
| 20260508094045 | 65 | 245 | 9.6 | 15.6 | 0.00 | 0.00 | 0.00 | 22 | 1010.1 |
| 20260508093547 | 65 | 254 | 7.8 | 18.2 | 0.00 | 0.00 | 0.00 | 22 | 1010.0 |
| 20260508093055 | 65 | 232 | 10.4 | 19.1 | 0.00 | 0.00 | 0.00 | 22 | 1010.0 |
| 20260508092544 | 65 | 226 | 9.6 | 19.1 | 0.00 | 0.00 | 0.00 | 22 | 1010.0 |
| 20260508092043 | 65 | 258 | 7.8 | 18.2 | 0.00 | 0.00 | 0.00 | 23 | 1010.1 |
| 20260508091542 | 65 | 269 | 11.3 | 18.2 | 0.00 | 0.00 | 0.00 | 23 | 1009.9 |
| 20260508091042 | 65 | 286 | 10.4 | 16.5 | 0.00 | 0.00 | 0.00 | 23 | 1010.0 |
| 20260508090542 | 65 | 214 | 7.8 | 19.1 | 0.00 | 0.00 | 0.00 | 23 | 1010.1 |
| 20260508085539 | 65 | 246 | 7.8 | 17.4 | 0.00 | 0.00 | 0.00 | 23 | 1010.0 |
| 20260508085038 | 65 | 222 | 7.8 | 17.4 | 0.00 | 0.00 | 0.00 | 23 | 1010.0 |
| 20260508084538 | 65 | 234 | 11.3 | 16.5 | 0.00 | 0.00 | 0.00 | 23 | 1010.0 |
| 20260508084037 | 65 | 234 | 8.7 | 15.6 | 0.00 | 0.00 | 0.00 | 23 | 1010.1 |
| 20260508083541 | 66 | 207 | 7.8 | 15.6 | 0.00 | 0.00 | 0.00 | 22 | 1010.2 |
| 20260508083036 | 66 | 254 | 8.7 | 14.8 | 0.00 | 0.00 | 0.00 | 22 | 1010.2 |
| 20260508082535 | 66 | 254 | 9.6 | 15.6 | 0.00 | 0.00 | 0.00 | 23 | 1010.2 |
| 20260508082035 | 66 | 234 | 5.2 | 15.6 | 0.00 | 0.00 | 0.00 | 23 | 1010.3 |
| 20260508081534 | 66 | 258 | 9.6 | 15.6 | 0.00 | 0.00 | 0.00 | 24 | 1010.3 |
| 20260508081032 | 66 | 211 | 7.0 | 15.6 | 0.00 | 0.00 | 0.00 | 25 | 1010.3 |
| 20260508080532 | 66 | 263 | 9.6 | 15.6 | 0.00 | 0.00 | 0.00 | 24 | 1010.4 |
| 20260508080038 | 66 | 258 | 8.7 | 15.6 | 0.00 | 0.00 | 0.00 | 24 | 1010.3 |
| 20260508075531 | 66 | 257 | 8.7 | 16.5 | 0.00 | 0.00 | 0.00 | 24 | 1010.2 |
| 20260508075033 | 66 | 237 | 9.6 | 18.2 | 0.00 | 0.00 | 0.00 | 24 | 1010.3 |
| 20260508074536 | 66 | 257 | 10.4 | 18.2 | 0.00 | 0.00 | 0.00 | 24 | 1010.3 |
| 20260508074029 | 66 | 221 | 6.1 | 14.8 | 0.00 | 0.00 | 0.00 | 24 | 1010.3 |
| 20260508073529 | 66 | 295 | 7.8 | 20.0 | 0.00 | 0.00 | 0.00 | 24 | 1010.3 |
| 20260508073030 | 66 | 185 | 8.7 | 20.0 | 0.00 | 0.00 | 0.00 | 24 | 1010.3 |
| 20260508072527 | 66 | 246 | 9.6 | 17.4 | 0.00 | 0.00 | 0.00 | 24 | 1010.3 |
| 20260508072025 | 66 | 269 | 9.6 | 16.5 | 0.00 | 0.00 | 0.00 | 25 | 1010.3 |
| 20260508071528 | 66 | 246 | 7.0 | 16.5 | 0.00 | 0.00 | 0.00 | 25 | 1010.3 |
| 20260508071026 | 67 | 263 | 7.0 | 20.0 | 0.00 | 0.00 | 0.00 | 25 | 1010.3 |
| 20260508070523 | 66 | 211 | 10.4 | 20.0 | 0.00 | 0.00 | 0.00 | 25 | 1010.3 |
| 20260508070022 | 66 | 239 | 6.1 | 15.6 | 0.00 | 0.00 | 0.00 | 25 | 1010.4 |
| 20260508065521 | 67 | 254 | 10.4 | 15.6 | 0.00 | 0.00 | 0.00 | 25 | 1010.3 |
| 20260508065021 | 67 | 238 | 7.8 | 13.0 | 0.00 | 0.00 | 0.00 | 25 | 1010.4 |
| 20260508064522 | 67 | 234 | 6.1 | 18.2 | 0.00 | 0.00 | 0.00 | 25 | 1010.3 |
| 20260508064021 | 67 | 239 | 8.7 | 17.4 | 0.00 | 0.00 | 0.00 | 25 | 1010.3 |
| 20260508063526 | 67 | 242 | 7.0 | 17.4 | 0.00 | 0.00 | 0.00 | 25 | 1010.2 |
| 20260508063020 | 67 | 230 | 9.6 | 16.5 | 0.00 | 0.00 | 0.00 | 24 | 1010.2 |
| 20260508062520 | 67 | 236 | 8.7 | 16.5 | 0.00 | 0.00 | 0.00 | 24 | 1010.0 |
| 20260508062020 | 67 | 252 | 7.8 | 18.2 | 0.00 | 0.00 | 0.00 | 23 | 1010.0 |
| 20260508061521 | 67 | 221 | 9.6 | 18.2 | 0.00 | 0.00 | 0.00 | 23 | 1010.0 |
| 20260508061021 | 67 | 217 | 10.4 | 16.5 | 0.00 | 0.00 | 0.00 | 23 | 1010.0 |
| 20260508060523 | 67 | 225 | 7.8 | 15.6 | 0.00 | 0.00 | 0.00 | 24 | 1010.1 |
| 20260508060021 | 68 | 242 | 7.8 | 15.6 | 0.00 | 0.00 | 0.00 | 25 | 1010.1 |
| 20260508055520 | 68 | 221 | 8.7 | 15.6 | 0.00 | 0.00 | 0.00 | 25 | 1010.2 |
| 20260508055023 | 68 | 241 | 7.0 | 16.5 | 0.00 | 0.00 | 0.00 | 25 | 1010.1 |
| 20260508054519 | 68 | 211 | 7.8 | 16.5 | 0.00 | 0.00 | 0.00 | 25 | 1010.1 |
| 20260508054020 | 68 | 190 | 9.6 | 15.6 | 0.00 | 0.00 | 0.00 | 25 | 1010.1 |
| 20260508053519 | 68 | 198 | 10.4 | 15.6 | 0.00 | 0.00 | 0.00 | 25 | 1010.0 |
| 20260508053019 | 68 | 175 | 8.7 | 16.5 | 0.00 | 0.00 | 0.00 | 26 | 1010.0 |
| 20260508052519 | 68 | 223 | 11.3 | 16.5 | 0.00 | 0.00 | 0.00 | 26 | 1010.0 |
| 20260508052018 | 68 | 236 | 10.4 | 17.4 | 0.00 | 0.00 | 0.00 | 27 | 1010.0 |
| 20260508051518 | 68 | 254 | 7.8 | 21.7 | 0.00 | 0.00 | 0.00 | 27 | 1010.0 |
| 20260508051020 | 68 | 187 | 9.6 | 16.5 | 0.00 | 0.00 | 0.00 | 27 | 1010.0 |
| 20260508050519 | 69 | 196 | 9.6 | 16.5 | 0.00 | 0.00 | 0.00 | 27 | 1010.0 |
| 20260508050018 | 69 | 236 | 9.6 | 18.2 | 0.00 | 0.00 | 0.00 | 26 | 1010.1 |
| 20260508045518 | 69 | 202 | 8.7 | 18.2 | 0.00 | 0.00 | 0.00 | 26 | 1010.1 |
| 20260508045017 | 69 | 205 | 9.6 | 17.4 | 0.00 | 0.00 | 0.00 | 26 | 1010.0 |
| 20260508044517 | 69 | 190 | 9.6 | 20.0 | 0.00 | 0.00 | 0.00 | 27 | 1010.0 |
| 20260508044021 | 69 | 205 | 13.0 | 20.0 | 0.00 | 0.00 | 0.00 | 27 | 1009.9 |
| 20260508043520 | 69 | 198 | 8.7 | 15.6 | 0.00 | 0.00 | 0.00 | 27 | 1010.0 |
| 20260508043016 | 69 | 234 | 10.4 | 15.6 | 0.00 | 0.00 | 0.00 | 27 | 1009.8 |
| 20260508042516 | 70 | 213 | 8.7 | 17.4 | 0.00 | 0.00 | 0.00 | 26 | 1009.8 |
| 20260508042015 | 70 | 246 | 11.3 | 17.4 | 0.00 | 0.00 | 0.00 | 26 | 1009.8 |
| 20260508041516 | 70 | 168 | 9.6 | 16.5 | 0.00 | 0.00 | 0.00 | 27 | 1009.8 |
| 20260508041015 | 70 | 186 | 9.6 | 17.4 | 0.00 | 0.00 | 0.00 | 27 | 1009.8 |
| 20260508040517 | 70 | 222 | 9.6 | 17.4 | 0.00 | 0.00 | 0.00 | 27 | 1009.6 |
| 20260508040018 | 71 | 198 | 9.6 | 16.5 | 0.00 | 0.00 | 0.00 | 27 | 1009.6 |
| 20260508035515 | 71 | 210 | 7.8 | 17.4 | 0.00 | 0.00 | 0.00 | 27 | 1009.5 |
| 20260508035017 | 71 | 181 | 11.3 | 17.4 | 0.00 | 0.00 | 0.00 | 26 | 1009.4 |
| 20260508034518 | 71 | 182 | 8.7 | 17.4 | 0.00 | 0.00 | 0.00 | 25 | 1009.4 |
| 20260508034015 | 72 | 193 | 8.7 | 17.4 | 0.00 | 0.00 | 0.00 | 21 | 1009.4 |
| 20260508033513 | 72 | 238 | 5.2 | 13.0 | 0.00 | 0.00 | 0.00 | 21 | 1009.3 |
| 20260508033019 | 72 | 232 | 4.3 | 13.9 | 0.00 | 0.00 | 0.00 | 20 | 1009.2 |
| 20260508032518 | 72 | 239 | 7.8 | 17.4 | 0.00 | 0.00 | 0.00 | 20 | 1009.2 |
| 20260508032012 | 72 | 327 | 8.7 | 17.4 | 0.00 | 0.00 | 0.00 | 20 | 1009.0 |
| 20260508031514 | 73 | 242 | 6.1 | 15.6 | 0.00 | 0.00 | 0.00 | 19 | 1008.9 |
| 20260508031013 | 73 | 211 | 6.1 | 18.2 | 0.00 | 0.00 | 0.00 | 17 | 1008.9 |
| 20260508030513 | 73 | 214 | 5.2 | 18.2 | 0.00 | 0.00 | 0.00 | 18 | 1008.8 |
| 20260508030013 | 73 | 240 | 4.3 | 12.2 | 0.00 | 0.00 | 0.00 | 17 | 1008.7 |
| 20260508025513 | 74 | 277 | 2.6 | 13.9 | 0.00 | 0.00 | 0.00 | 17 | 1008.7 |
| 20260508025012 | 74 | 214 | 5.2 | 13.9 | 0.00 | 0.00 | 0.00 | 17 | 1008.6 |
| 20260508024518 | 74 | 191 | 4.3 | 16.5 | 0.00 | 0.00 | 0.00 | 17 | 1008.6 |
| 20260508024012 | 74 | 206 | 4.3 | 17.4 | 0.00 | 0.00 | 0.00 | 17 | 1008.6 |
| 20260508023511 | 75 | 281 | 10.4 | 18.2 | 0.00 | 0.00 | 0.00 | 16 | 1008.6 |
| 20260508023021 | 75 | 279 | 7.0 | 18.2 | 0.00 | 0.00 | 0.00 | 16 | 1008.5 |
| 20260508022511 | 76 | 254 | 9.6 | 19.1 | 0.00 | 0.00 | 0.00 | 16 | 1008.5 |
| 20260508022010 | 76 | 239 | 9.6 | 19.1 | 0.00 | 0.00 | 0.00 | 16 | 1008.3 |
| 20260508021511 | 77 | 278 | 8.7 | 15.6 | 0.00 | 0.00 | 0.00 | 15 | 1008.3 |
| 20260508021010 | 77 | 283 | 9.6 | 18.2 | 0.00 | 0.00 | 0.00 | 14 | 1008.3 |
| 20260508020514 | 77 | 265 | 8.7 | 18.2 | 0.00 | 0.00 | 0.00 | 15 | 1008.2 |
| 20260508020010 | 78 | 298 | 10.4 | 16.5 | 0.00 | 0.00 | 0.00 | 16 | 1008.2 |
| 20260508015510 | 78 | 259 | 7.8 | 16.5 | 0.00 | 0.00 | 0.00 | 15 | 1008.3 |
| 20260508015010 | 78 | 265 | 9.6 | 17.4 | 0.00 | 0.00 | 0.00 | 14 | 1008.1 |
| 20260508014509 | 78 | 275 | 9.6 | 19.1 | 0.00 | 0.00 | 0.00 | 15 | 1008.1 |
| 20260508014009 | 79 | 290 | 10.4 | 20.0 | 0.00 | 0.00 | 0.00 | 15 | 1008.0 |
| 20260508013508 | 79 | 240 | 10.4 | 19.1 | 0.00 | 0.00 | 0.00 | 15 | 1008.0 |
| 20260508013114 | 79 | 286 | 9.6 | 19.1 | 0.00 | 0.00 | 0.00 | 15 | 1008.0 |